Regional Weather Roundup
Issued by NWS State College, PA

Home | Current Version | Previous Version | Text Only | Print | Product List | Glossary Off
Versions: 1 2 3 4 5 6 7 8 9 10 11 12 13 14 15 16 17 18 19 20 21 22 23 24 25 26 27 28 29 30 31 32 33 34 35 36 37 38 39 40 41 42 43 44 45 46 47 48 49 50

000
ASUS41 KCTP 140603
RWRCTP

REGIONAL WEATHER ROUNDUP
NATIONAL WEATHER SERVICE STATE COLLEGE PA
100 AM EST SUN FEB 14 2016

Note: "fair" indicates few or no clouds below 12,000 feet with no
significant weather and/or obstructions to visibility.

* = STATION THAT DOES NOT REPORT PRECIPITATION /E.G. RAIN...SNOW...ETC/
    THUNDER OR FOG.

PAZ002>004-007>009-013>016-020>023-029>032-140700-
WESTERN PENNSYLVANIA

CITY           SKY/WX    TMP DP  RH WIND       PRES   REMARKS
ERIE           LGT SNOW  11   4  73 N12       30.42R VSB 1   WCI  -3
MEADVILLE      FLURRIES   6  -2  69 W5        30.34S WCI  -3
FRANKLIN*      CLOUDY     3  -4  72 W6        30.34F WCI  -8
NEW CASTLE     FAIR      -4  -8  83 SW3       30.42S
BEAVER COUNTY  NOT AVBL
BUTLER*        CLEAR      0  -4  85 CALM      30.41F
PITTSBURGH INT LGT SNOW   4  -1  80 W5        30.40R WCI  -5
PITTSBURGH     CLOUDY     6  -2  69 W7        30.39R WCI  -6
INDIANA*       PTCLDY     5   0  78 W8        30.38S WCI  -8
LATROBE        MOCLDY     0  -4  85 SW7       30.41S WCI -13
WASHINGTON CO* CLEAR      1  -2  85 CALM      30.40R
$$

PAZ004>006-010>012-017>019-024>028-033>037-041-042-045-046-049>053-140700-
CENTRAL PENNSYLVANIA

CITY           SKY/WX    TMP DP  RH WIND       PRES   REMARKS
BRADFORD       PTCLDY    -2  -8  76 NW8       30.22S WCI -17
DUBOIS         CLOUDY     0  -5  79 W7        30.27S WCI -13
CLEARFIELD     CLOUDY     2  -3  80 SW3       30.30S
JOHNSTOWN      PTCLDY     2  -6  69 NW21G29   30.23S WCI -20
ALTOONA        PTCLDY     5  -5  63 NW9       30.32R WCI  -9
STATE COLLEGE  PTCLDY     5  -3  69 W7        30.32S WCI  -7
WILLIAMSPORT   CLEAR      6  -9  50 NW16      30.36S WCI -12
SELINSGROVE    CLEAR      7  -8  50 NW8       30.38S WCI  -6
FT INDIANTOWN  CLEAR      9  -8  47 W15G26    30.35R WCI  -8
CAPITAL CITY   MOCLDY    11  -7  44 NW16G25   30.38S WCI  -6
HARRISBURG     PTCLDY    11  -4  51 NW17      30.38S WCI  -6
YORK           PTCLDY     9  -8  46 NW15      30.38S WCI  -8
$$

PAZ038>040-043-044-047-048-054-055-060>062-067>071-140700-
EASTERN PENNSYLVANIA

CITY           SKY/WX    TMP DP  RH WIND       PRES   REMARKS
SCRANTON       MOCLDY     1 -11  57 NW10G20   30.28R WCI -15
MOUNT POCONO   CLOUDY    -4 -13  65 NW17G24   30.11R HAZE    WCI -26
ALLENTOWN      CLOUDY     8  -8  48 NW10      30.34R WCI  -6
QUAKERTOWN*    PTCLDY     7  -8  51 N7G21     30.33R WCI  -5
READING        CLEAR      8  -7  50 NW16      30.36R WCI -10
LANCASTER      CLEAR      8  -5  55 NW14      30.37R WCI  -8
COATESVILLE    CLEAR      9  -2  61 NW13      30.34R WCI  -7
POTTSTOWN      MOCLDY     9  -8  46 NW16G23   30.36R WCI  -8
BLUE BELL        N/A     10  -9  40 NW7G23    30.34R WCI   0
DOYLESTOWN     PTCLDY     7 -11  43 NW13G26   30.32R WCI  -9
WILLOW GROVE   NOT AVBL
NORTH PHILA    CLEAR     12  -9  38 NW16G23   30.38R WCI  -5
PHILADELPHIA   PTCLDY    13  -8  39 NW13G25   30.39R WCI  -2
$$



USA.gov is the U.S. government's official web portal to all federal, state and local government web resources and services.